sat.trackr.live / text

‹ back to catalog

STARLINK-5076

NORAD 55401 · 2023-014L

PAYLOAD ACTIVE UNKNOWN

§ Identity

Operator
Country
US
Launch date
2023-01-31
Launch site
AFWTR
Launch vehicle
Mass (kg)
RCS (m²)

Purposes: comms

External: N2YO · Heavens-Above · Gunter

§ Orbital elements

Epoch: 2026-05-24T15:22:03.791424Z

Period
96.11 min
Inclination
69.9994°
Eccentricity
0.0003511
Mean motion
14.98330868 rev/d
Perigee alt
569.6 km
Apogee alt
574.5 km
Semi-major
6,950.2 km
B*
-9.4462e-7
RAAN
232.8911°
Arg perigee
268.8242°
Mean anomaly
91.2515°
Rev number
18,343

§ Raw data

STARLINK-50761 55401U 23014L   26144.64032166 -.00000104  00000+0 -94462-6 0  99972 55401  69.9994 232.8911 0003511 268.8242  91.2515 14.98330868183433

JSON: /api/v1/satellites/55401 · /tle

For live sub-satellite position, see the globe view (requires WebGL).

§ Visibility from observer

Set your observer location to see the next 7 days of passes ≥ 10°. The values pass through the URL so the page stays shareable.

No JS? Fill the form by hand. The geolocation button needs JavaScript.